Content
SEND FEEDBACK

Daily
Averages
Monthly
Summary
United States of America

FAYETTEVILLE, TENNESSEE


Home > North America > United States > Tennessee
Elevation: 213 meters     Latitude: 35 10N     Longitude: 086 33W

WEATHER
 
SELECT A DAY
Number of Records: 304,012;   Date Range: 4/22/02 - 9/30/14
 
SHARE

PRINT THIS DATA

[ ← Previous Day ]
WEATHER ALMANAC - 18 OCTOBER, 2013
[ Next Day → ]
[ °F ]   °C
Weather ElementAverageHighLow
Temperature11.2 °C17 °C (1:35 pm)7 °C (2:15 am)
Dewpoint7.8 °C13 °C (12:35 pm)5 °C (2:55 pm)
Humidity82.3 %100 % (2:15 am)45 % (2:55 pm)
Barometer1017.3 hPa1019.3 hPa (8:55 am)1015.2 hPa (5:15 pm)
Wind Speed1.1 km/h11.1 km/h (3:35 pm)
Weather ElementAverage
Visibility9.3 km
Wind DirectionNE (47.2 °)

Weather ElementTotal
Precipitation---
Heating Degree Days6.3 (Base 18.3)
Growing Degree Days2 (Base 10)
Averaged from 71 records on 18 October, 2013
WEATHER CONDITIONS BREAKOUT
WIND DIRECTION BREAKOUT
WEATHER BY HOUR - 18 OCTOBER, 2013
[ °F ]   °C
Local TimeTemperatureDewpointHumidityBarometerVisibilityWind DirectionWind SpeedGust SpeedPrecipitationEventsConditions
12:35 AM8 °C7 °C93 %1016.6 hPa0.3 kmCalmFogFog
12:55 AM8 °C7 °C93 %1016.6 hPa0.3 kmCalmFogFog
1:15 AM8 °C7 °C93 %1016.6 hPa0.3 kmCalmFogFog
1:35 AM8 °C7 °C93 %1016.6 hPa0.3 kmCalmFogFog
1:55 AM8 °C7 °C93 %1016.6 hPa0.3 kmCalmFogFog
2:15 AM7 °C7 °C100 %1016.6 hPa0.8 kmCalmFogFog
2:35 AM7 °C6 °C93 %1016.6 hPa0.3 kmCalmFogFog
2:55 AM8 °C7 °C93 %1016.6 hPa0.3 kmCalmFogFog
3:15 AM7 °C6 °C93 %1016.6 hPa0.3 kmCalmFogFog
3:35 AM8 °C7 °C93 %1016.6 hPa0.8 kmCalmFogFog
3:55 AM8 °C7 °C93 %1016.6 hPa0.3 kmCalmFogFog
4:15 AM8 °C7 °C93 %1016.9 hPa0.3 kmCalmFogFog
4:35 AM8 °C7 °C93 %1016.9 hPa0.3 kmCalmFogFog
4:55 AM8 °C7 °C93 %1016.9 hPa0.3 kmCalmFogFog
5:15 AM8 °C7 °C93 %1017.3 hPa0.3 kmCalmFogFog
5:35 AM8 °C7 °C93 %1017.6 hPa0.3 kmCalmFogFog
5:55 AM8 °C7 °C93 %1017.6 hPa0.3 kmCalmFogFog
6:15 AM8 °C7 °C93 %1017.9 hPa0.3 kmCalmFogFog
6:35 AM8 °C7 °C93 %1017.9 hPa0.3 kmCalmFogFog
6:55 AM8 °C7 °C93 %1017.9 hPa0.3 kmCalmFogFog
7:15 AM8 °C7 °C93 %1018.3 hPa0.3 kmCalmFogFog
7:35 AM8 °C7 °C93 %1018.6 hPa0.3 kmCalmFogFog
7:55 AM8 °C7 °C93 %1018.6 hPa0.3 kmCalmFogFog
8:15 AM8 °C7 °C93 %1018.6 hPa0.3 kmCalmFogFog
8:35 AM8 °C7 °C93 %1019 hPa0.3 kmCalmFogFog
8:55 AM9 °C8 °C93 %1019.3 hPa0.3 kmCalmFogFog
9:15 AM10 °C8 °C87 %1019.3 hPa0.8 kmCalmFogFog
9:35 AM10 °C8 °C87 %1019.3 hPa1.3 kmCalmOvercast
9:55 AM10 °C8 °C87 %1019.3 hPa1.6 kmCalmOvercast
10:15 AM10 °C9 °C94 %1019 hPa6.4 kmCalmOvercast
10:35 AM11 °C10 °C94 %1019.3 hPa11.3 kmCalmOvercast
10:55 AM12 °C10 °C88 %1019.3 hPa16.1 kmCalmOvercast
11:15 AM12 °C11 °C94 %1019 hPa16.1 kmNNW (340°)7.4 km/hOvercast
11:35 AM13 °C12 °C94 %1019 hPa16.1 kmCalmMostly Cloudy
11:55 AM13 °C12 °C94 %1018.6 hPa16.1 kmCalmMostly Cloudy
12:15 PM13 °C12 °C94 %1018.3 hPa16.1 kmCalmMostly Cloudy
12:35 PM14 °C13 °C94 %1017.9 hPa16.1 kmCalmScattered Clouds
12:55 PM16 °C9 °C63 %1017.6 hPa16.1 kmCalmScattered Clouds
1:15 PM16 °C7 °C55 %1017.3 hPa16.1 kmWNW (290°)7.4 km/hScattered Clouds
1:35 PM17 °C7 °C52 %1017.3 hPa16.1 kmNNW (340°)7.4 km/hClear
1:55 PM17 °C6 °C48 %1016.9 hPa16.1 kmNorth (350°)7.4 km/hClear
2:15 PM17 °C6 °C48 %1016.6 hPa16.1 kmCalmScattered Clouds
2:35 PM16 °C6 °C52 %1016.6 hPa16.1 kmNW (320°)7.4 km/hClear
2:55 PM17 °C5 °C45 %1016.3 hPa16.1 kmNW (320°)7.4 km/hClear
3:15 PM17 °C5 °C45 %1016.3 hPa16.1 kmCalmClear
3:35 PM17 °C5 °C45 %1015.9 hPa16.1 kmNW (320°)11.1 km/hClear
3:55 PM17 °C5 °C45 %1015.9 hPa16.1 kmCalmClear
4:15 PM17 °C5 °C45 %1015.9 hPa16.1 kmNorth (10°)5.6 km/hClear
4:35 PM17 °C5 °C45 %1015.6 hPa16.1 kmCalmClear
4:55 PM17 °C5 °C45 %1015.6 hPa16.1 kmNorth (360°)7.4 km/hClear
5:15 PM17 °C5 °C45 %1015.2 hPa16.1 kmNorth (360°)7.4 km/hClear
5:35 PM15 °C6 °C55 %1015.2 hPa16.1 kmNNW (340°)5.6 km/hClear
5:55 PM14 °C7 °C63 %1015.2 hPa16.1 kmCalmClear
6:15 PM13 °C8 °C72 %1015.6 hPa16.1 kmCalmClear
6:35 PM12 °C8 °C77 %1015.6 hPa16.1 kmCalmClear
6:55 PM12 °C9 °C82 %1015.6 hPa16.1 kmCalmClear
7:15 PM12 °C9 °C82 %1015.9 hPa16.1 kmCalmClear
7:35 PM11 °C9 °C88 %1015.9 hPa16.1 kmCalmClear
7:55 PM11 °C9 °C88 %1016.3 hPa16.1 kmCalmClear
8:15 PM11 °C9 °C88 %1016.6 hPa16.1 kmCalmClear
8:35 PM10 °C8 °C87 %1016.3 hPa16.1 kmCalmClear
8:55 PM11 °C10 °C94 %1016.6 hPa16.1 kmCalmClear
9:15 PM10 °C9 °C94 %1016.9 hPa16.1 kmCalmClear
9:35 PM11 °C9 °C88 %1016.9 hPa16.1 kmCalmClear
9:55 PM10 °C9 °C94 %1016.6 hPa16.1 kmCalmClear
10:15 PM10 °C10 °C100 %1017.3 hPa16.1 kmCalmClear
10:35 PM10 °C10 °C100 %1017.3 hPa16.1 kmCalmClear
10:55 PM10 °C9 °C94 %1016.9 hPa16.1 kmCalmClear
11:15 PM10 °C9 °C94 %1016.6 hPa16.1 kmCalmClear
11:35 PM10 °C9 °C94 %1016.6 hPa11.3 kmCalmClear
11:55 PM10 °C10 °C100 %1016.3 hPa11.3 kmCalmClear
Hourly data recorded from KMDQ, located 0 kilometers away from Fayetteville, Tennessee







STORIES FROM OUR PARTNERS